Location: Austin
(30.3000°N, 97.7500°W)
Time: 04:56:10
(UTC-06:00)

BREEZE M DEB (TANK) - Pass Details

Date: 05 February 2026
Orbit: 287 x 11207 km, 49.5° (Epoch: 14 February)

Event Time Altitude Azimuth Distance (km) Brightness Sun altitude
Exits shadow 04:59:54 55° 73° (ENE) 893 3.5 -30.4°
Drops below altitude 10° 05:07:43 10° 125° (SE) 4,149 7.4 -28.7°
Sets 05:13:52 0° 129° (SE) 6,661 8.6 -27.3°
